Torna al catalogo

FENGYUN 1C DEB

AttivoSSO
NORAD 30382·DEBRIS·🇨🇳 China

Lanciato May 10, 1999 da Taiyuan Satellite Launch Center

Loading…

Prossimi Passaggi (prossime 24 ore)

TLE

AggiornatoSource: Space-Track

Epoca: Sep 14, 2026, 08:38 UTC

1 30382U 99025ACV 26257.35978297  .00001067  00000-0  41008-3 0  9993
2 30382  98.4742 292.1367 0151736 269.2868  99.9385 14.26362449 14601

Traccia FENGYUN 1C DEB in tempo reale con AllMySat

Download on the App Store